Regional Weather Roundup
Issued by NWS Memphis, TN

Home | Current Version | Previous Version | Text Only | Print | Product List | Glossary On
Versions: 1 2 3 4 5 6 7 8 9 10 11 12 13 14 15 16 17 18 19 20 21 22 23 24 25 26 27 28 29 30 31 32 33 34 35 36 37 38 39 40 41 42 43 44 45 46 47 48 49 50
000
ASUS44 KMEG 200210
RWRMEG
MEMPHIS CWA HOURLY WEATHER ROUNDUP
NATIONAL WEATHER SERVICE MEMPHIS TN
900 PM CDT THU OCT 19 2017

...WEST TENNESSEE...

CITY           SKY/WX    TMP DP  RH WIND       PRES   REMARKS
MEMPHIS INTL   MOCLDY    61  52  72 S6        30.20S
NWS MEMPHIS      N/A     58 N/A N/A MISG        N/A
JACKSON        CLEAR     54  53  97 CALM      30.21F
COVINGTON      CLEAR     54  50  87 S3        30.20S
SOMERVILLE     CLEAR     57  54  88 CALM      30.20S
BOLIVAR        CLEAR     52  52 100 CALM      30.21S
LEXINGTON      CLEAR     52  52 100 CALM      30.22S
SELMER         CLEAR     54  50  87 SE3       30.21S
SAVANNAH       CLEAR     52  52 100 CALM      30.22S
UNION CITY     CLEAR     54  52  94 CALM      30.20S
PARIS          CLEAR     52  48  87 CALM      30.20F
HUNTINGDON     CLEAR     55  50  82 CALM      30.20F


...EASTERN ARKANSAS...

CITY           SKY/WX    TMP DP  RH WIND       PRES   REMARKS
JONESBORO      PTCLDY    60  51  72 CALM      30.19R
WEST MEMPHIS   PTCLDY    55  52  89 CALM      30.19S
BATESVILLE     PTCLDY    64  52  64 SE5       30.19R
NEWPORT        CLOUDY    59  53  80 SE3       30.19S
WALNUT RIDGE   CLEAR     59  50  72 SE6       30.18S
BLYTHEVILLE    CLEAR     63  53  70 S6        30.20S
SEARCY         PTCLDY    57  56  96 CALM      30.18S
STUTTGART      PTCLDY    63  53  70 E6        30.19R
PINE BLUFF     PTCLDY    60  50  69 CALM      30.18S
MONTICELLO     MOCLDY    59  55  87 CALM      30.18S


...NORTH MISSISSIPPI...

CITY           SKY/WX    TMP DP  RH WIND       PRES   REMARKS
TUPELO         CLEAR     57  51  80 CALM      30.21S
OXFORD         CLEAR     54  52  94 CALM      30.23S
BATESVILLE     CLEAR     53  51  94 CALM      30.21S
TUNICA           N/A    N/A N/A N/A CALM      30.21S
CLARKSDALE       N/A     63  57  82 E6        30.19F
CORINTH        CLEAR     55  54  94 CALM      30.22S
GREENWOOD      CLOUDY    59  54  83 E3        30.19S
COLUMBUS       CLEAR     55  55 100 CALM      30.20S
STARKVILLE     CLEAR     55  52  88 CALM      30.22S
GOLDEN TRIANGL CLEAR     61  54  77 CALM      30.21F


...SOUTHEAST MISSOURI...

CITY           SKY/WX    TMP DP  RH WIND       PRES   REMARKS
KENNETT        CLEAR     59  52  77 CALM      30.18S
MALDEN         CLEAR     61  48  63 S3        30.20S
WEST PLAINS    CLEAR     66  48  52 S7        30.19S
POPLAR BLUFF   CLEAR     57  52  83 CALM      30.18S
CAPE GIRARDEAU CLEAR     59  49  69 S7        30.19S


...NORTHWEST ALABAMA...

CITY           SKY/WX    TMP DP  RH WIND       PRES   REMARKS
MUSCLE SHOALS  CLEAR     53  49  86 CALM      30.24F


...MIDDLE TENNESSEE...

CITY           SKY/WX    TMP DP  RH WIND       PRES   REMARKS
NASHVILLE      CLEAR     58  49  72 S5        30.24S
CLARKSVILLE    CLEAR     57  50  77 CALM      30.22F
COLUMBIA       CLEAR     54  50  87 S3        30.22S


...WESTERN KENTUCKY...

CITY           SKY/WX    TMP DP  RH WIND       PRES   REMARKS
PADUCAH        CLEAR     55  49  80 CALM      30.19F
FORT CAMPBELL  CLEAR     59  51  75 CALM      30.22S


...CENTRAL ARKANSAS...

CITY           SKY/WX    TMP DP  RH WIND       PRES   REMARKS
LITTLE ROCK    MOCLDY    63  56  78 CALM      30.18R


SKY/WX REPORTED AS FAIR MEANS FEW OR NO CLOUDS BELOW
12 THOUSAND FEET.





USA.gov is the U.S. government's official web portal to all federal, state and local government web resources and services.